Location: Mount Kobau Star Party
(49.1167°N, 119.7333°W)
Time: 04:49:44
(UTC-07:00)

Explorer 7 - Visible Passes

Search period start: 08 July 2025 00:00
Search period end: 18 July 2025 00:00
Orbit: 444 x 570 km, 50.3° (Epoch: 07 July)

Date Brightness Start Highest point End Pass type
(mag) Time Alt. Az. Time Alt. Az. Time Alt. Az.
14 Jul 9.4 04:28:13 10° SSE 04:29:24 11° SE 04:30:36 10° ESE visible
15 Jul 9.3 04:08:17 10° SSE 04:09:50 12° SE 04:11:22 10° ESE visible
16 Jul 9.2 03:48:25 10° SSE 03:50:14 12° SE 03:52:03 10° ESE visible
17 Jul 9.1 03:28:36 10° SSE 03:30:38 13° SE 03:32:41 10° ESE visible
